Location: Jangalapalle
(16.8036°N, 80.6370°E)
Time: 10:56:44
(UTC+00:00)

Atlas Centaur 2 - Pass Details

Date: 05 August 2024
Orbit: 457 x 1272 km, 30.4° (Epoch: 08 September)

Event Time Altitude Azimuth Distance (km) Brightness Sun altitude
Rises 14:24:45 0° 277° (W) 2,552 6.1 -18.0°
Reaches altitude 10° 14:27:09 10° 293° (WNW) 1,745 5.2 -18.5°
Maximum altitude 14:30:22 23° 347° (NNW) 1,236 3.5 -19.2°
Drops below altitude 10° 14:34:04 10° 40° (NE) 2,044 4.1 -20.0°
Enters shadow 14:34:43 - 44° (NE) 2,256 4.2 -20.2°
